Tracking 30995 objects as of 5-Jul-2025
HD Live streaming from Space Station
objects crossing your sky now

ITALSAT 1

Track ITALSAT 1 now!
ITALSAT 1 is classified as:


NORAD ID: 21055
Int'l Code: 1991-003A
Perigee: 35,826.8 km
Apogee: 35,938.1 km
Inclination: 14.6 °
Period: 1,440.6 minutes
Semi major axis: 42253 km
RCS: 3.4358 m2 (large)
Launch date: January 15, 1991
Source: Italy (IT)
Launch site: FRENCH GUIANA (FRGUI)
Your satellite tracking list
PHOBOS-GRUNT
SUOMI NPP
Track 2 satellite(s)




NASA's NSSDC Master Catalog

Two Line Element Set (TLE):
1 21055U 91003A   25186.54108589  .00000019  00000-0  00000-0 0  9998
2 21055  14.6325 354.1358 0013176  56.8474 308.2893  0.99956250113628
Source of the keplerian elements: AFSPC